Regional Weather Roundup
Issued by NWS Sterling, VA

Home | Current Version | Previous Version | Graphics & Text | Print | Product List | Glossary On
Versions: 1 2 3 4 5 6 7 8 9 10 11 12 13 14 15 16 17 18 19 20 21 22 23 24 25 26 27 28 29 30 31 32 33 34 35 36 37 38 39 40 41 42 43 44 45 46 47 48 49 50
000
ASUS41 KLWX 010810
RWRLWX

REGIONAL WEATHER ROUNDUP
NATIONAL WEATHER SERVICE BALTIMORE MD/WASHINGTON DC
400 AM EDT WED JUL 01 2015

Note: "FAIR" indicates few or no clouds below 12,000 feet
with no significant weather and/or obstructions to visibility.
 TC=TEMPERATURE CELSIUS

 * =Non NWS site. Station does not report precipitation (e.g. rain,
    snow, etc.), thunder, or fog.

DCZ001-MDZ009-015-VAZ040>042-051-053>054-010900-
WASHINGTON METRO

CITY           SKY/WX    TMP DP  RH WIND       PRES   REMARKS
WASHINGTON NAT CLOUDY    69  65  86 SW5       29.83R
DULLES         CLOUDY    66  65  96 CALM      29.83S
ANDREWS AFB    CLOUDY    66  65  99 S3        29.83R
FT BELVOIR     MOCLDY    66  64  94 CALM      29.83R FOG
QUANTICO       CLOUDY    71  65  81 SW6       29.84R
LEESBURG*      CLOUDY    66  66 100 CALM      29.85R
MANASSAS*      MOCLDY    66  66 100 CALM      29.84R
GAITHERSBURG*  CLOUDY    64  63  94 CALM      29.87S

$$

MDZ006>007-011-014-010900-
BALTIMORE METRO

CITY           SKY/WX    TMP DP  RH WIND       PRES   REMARKS
BWI AIRPORT    CLOUDY    66  65  96 CALM      29.81F
MD SCIENCE CTR   N/A     68  65  90 MISG      29.82S
MARTIN STATE   RAIN      68  68 100 CALM      29.83S
ANNAPOLIS      CLOUDY    68  64  87 CALM      29.81F
FORT MEADE*    CLOUDY    64  63  94 CALM      29.84R

$$

MDZ012-015-019>023-010900-
MARYLAND EASTERN SHORE

CITY           SKY/WX    TMP DP  RH WIND       PRES   REMARKS
OCEAN CITY     CLOUDY    75  66  73 W8        29.85R
SALISBURY      CLOUDY    73  67  81 W8        29.85R
BAY BRIDGE AP*   N/A     68  68 100 CALM      29.81S
CAMBRIDGE*     CLOUDY    72  66  83 S3        29.83F
EASTON*        LGT RAIN  70  70 100 CALM      29.85F

$$

MDZ017>025-010900-
SOUTHERN MARYLAND

CITY           SKY/WX    TMP DP  RH WIND       PRES   REMARKS
PATUXENT RIVER LGT RAIN  69  67  93 E5        29.80F
ST INIGOES     LGT RAIN  71  68  90 SE5       29.79F
LEONARDTOWN*   CLOUDY    68  64  88 W3        29.83F

$$

MDZ003>005-010900-
NORTH CENTRAL MARYLAND

CITY           SKY/WX    TMP DP  RH WIND       PRES   REMARKS
FREDERICK*     CLOUDY    68  68 100 SW3       29.85R
HAGERSTOWN APT CLOUDY    69  62  78 SW6       29.83R
WESTMINSTER*   CLOUDY    66  64  94 SW3       29.82F

$$

MDZ501>502-010900-
WESTERN MARYLAND

CITY           SKY/WX    TMP DP  RH WIND       PRES   REMARKS
OAKLAND*       CLOUDY    55 N/A N/A SW8G17    29.93R
CUMBERLAND*    CLOUDY    66  55  68 SE5       29.88S

$$

VAZ025>031-010900-
SHENANDOAH VALLEY

CITY           SKY/WX    TMP DP  RH WIND       PRES   REMARKS
WINCHESTER*    CLOUDY    68  64  88 SW5       29.85R
FRONT ROYAL*   CLOUDY    64  64 100 S5        29.84R
LURAY*         PTSUNNY   68  68 100 SW7       29.87R
NEW MARKET*    PTSUNNY   64  64  98 CALM      29.86R
STAUNTON*      PTCLDY    65  63  91 CALM      29.91R
WAYNESBORO*    NOT AVBL

$$

WVZ021-048>050-054>055-010900-
EASTERN WEST VIRGINIA PANHANDLE

CITY           SKY/WX    TMP DP  RH WIND       PRES   REMARKS
MARTINSBURG    CLOUDY    65  63  93 CALM      29.85R
PETERSBURG*    CLOUDY    61  57  87 CALM      29.88R

$$

VAZ036>039-050-010900-
CENTRAL FOOTHILLS

CITY           SKY/WX    TMP DP  RH WIND       PRES   REMARKS
CHARLOTTESVILL CLEAR     66  64  93 CALM      29.85R
CULPEPER*      PTCLDY    65  65  99 CALM      29.85R
ORANGE*          N/A     66  64  94 CALM      29.85
GORDONSVILLE*  FAIR      64  64 100 CALM      29.84R FOG
WARRENTON*     FAIR      67  67 100 S3        29.83R FOG

$$

VAZ055>057-010900-
NORTH AND CENTRAL PIEDMONT

CITY           SKY/WX    TMP DP  RH WIND       PRES   REMARKS
FREDERICKSBRG* MOCLDY    69  69 100 CALM      29.84R FOG
STAFFORD*      FOG       65  64  97 CALM      29.88R VSB 1/2

$$

NCZ024-NYZ072-PAZ021-071-VAZ022-071-010900-
OTHER REGIONAL OBSERVATIONS

CITY           SKY/WX    TMP DP  RH WIND       PRES   REMARKS
NEW YORK CITY  LGT RAIN  73  70  90 VRB3      29.79F FOG
PHILADELPHIA   LGT RAIN  71  65  81 W7        29.80F
PITTSBURGH     CLOUDY    61  58  90 SW6       29.84R
ROANOKE        CLEAR     65  60  84 N3        29.94S
RICHMOND       CLOUDY    70  67  90 S9        29.85R
RALEIGH        MOCLDY    69  66  90 SW7       29.92R

$$

ANZ530>537-010900-
MARINE OBSERVATIONS

STATION/POSITION TIME  TEMP    WIND        PRES
                       AIR SEA DIR/SP/G
                 (UTC) (F)     (DEG/KT/KT) (MB)
THOMAS PT LIGHT  NOT AVBL
BALT KEY BRIDGE  0700   67     220/  8/ 11 1010.0F
COVE POINT       0700   71     310/ 14/ 19 1010.4R
LEWISETTA        0700   71 80  270/ 14/ 18 1010.2R
SOLOMONS ISLAND  0700      80                N/A
PINEY POINT      0700          280/ 10/ 12   N/A

$$



USA.gov is the U.S. government's official web portal to all federal, state and local government web resources and services.